Find STARLINK-37551

NORAD ID: 68907 Constellation: starlink operational
LEOCIRCULARRETROGRADE

Live Position

Loading 3D Globe...

About STARLINK-37551

Description loading...

Upcoming Passes

Passes for default location (London). Set your location on the main map for personalized predictions.

Altitude History

Loading altitude history...

Two-Line Element Set

1 68907U 26097N 26125.50001156 -.02129813 12819-2 -53094-2 0 9992
2 68907 97.2872 320.4927 0001420 82.9578 145.4179 15.95962549 2064
Epoch: May 5, 2026 • Age: 6 hours